Regional Weather Roundup
Issued by NWS

Home | Current Version | Previous Version | Text Only | Print | Product List | Glossary On
Versions: 1 2 3 4 5 6 7 8 9 10 11 12 13 14 15 16 17 18 19 20 21 22 23 24 25 26 27 28 29 30 31 32 33 34 35 36 37 38 39 40 41 42 43 44 45 46 47 48 49 50
000
ASUS44 KFWD 062201
RWRTX
NORTH TEXAS HOURLY WEATHER ROUNDUP
NATIONAL WEATHER SERVICE FORT WORTH TX
400 PM CST SAT FEB 06 2016

NOTE: "FAIR" INDICATES FEW OR NO CLOUDS BELOW 12,000 FEET WITH NO
SIGNIFICANT WEATHER AND/OR OBSTRUCTIONS TO VISIBILITY.

TXZ118-119-062300-
DALLAS/FORT WORTH METROPLEX

CITY           SKY/WX    TMP DP  RH WIND       PRES   REMARKS
DFW AIRPORT    PTSUNNY   54  33  45 N7        30.34F
DALLAS LOVE    PTSUNNY   50  36  58 NW8       30.35F
FTW MEACHAM    MOSUNNY   54  35  48 N9        30.34F
DAL-EXECUTIVE  CLOUDY    50  36  58 N5        30.34F
FTW-ALLIANCE   MOSUNNY   51  35  54 E6        30.34F
FTW-NAS-JRB    MOSUNNY   52  33  48 NE7       30.35F
FTW-SPINKS     PTSUNNY   48  34  57 N8        30.37F
ARLINGTON      CLOUDY    51  35  54 NW6       30.35F
GRAND PRAIRIE  PTSUNNY   50  36  57 NW3       30.37F
ADDISON        CLOUDY    50  37  62 NW8       30.35F
MESQUITE       MOSUNNY   50  36  57 CALM      30.35F
LANCASTER      CLOUDY    49  34  56 NW6       30.36F
$$

TXZ091>094-102>105-117-120-121-131>134-062300-
NORTH CENTRAL TEXAS

CITY           SKY/WX    TMP DP  RH WIND       PRES   REMARKS
GAINESVILLE    MOSUNNY   52  32  46 CALM      30.35F
BRIDGEPORT     MOSUNNY   52  35  51 NW7       30.35F
DENTON         CLOUDY    52  33  48 N6        30.34F
MCKINNEY       SUNNY     52  31  44 CALM      30.34S
ROCKWALL       CLOUDY    51  35  54 N6        30.33S
TERRELL        MOSUNNY   51  35  54 CALM      30.35S
WAXAHACHIE     CLOUDY    49  38  65 N8        30.36F
$$

TXZ083>090-098>101-113>116-127>130-139>142-154-155-062300-
WESTERN NORTH TEXAS

CITY           SKY/WX    TMP DP  RH WIND       PRES   REMARKS
WICHITA FALLS  SUNNY     52  26  36 CALM      30.34F
VERNON         SUNNY     54  15  21 CALM      30.34F
ABILENE        SUNNY     56  19  23 NW9       30.35F
ABILENE-DYESS  SUNNY     55  18  23 VRB2      30.34S
MINERAL WELLS  SUNNY     53  29  39 W5        30.33F
STEPHENVILLE   SUNNY     53  29  39 N5        30.37S
COMANCHE       SUNNY     54  26  34 N10       30.35S
BROWNWOOD      SUNNY     55  18  22 NW10G21   30.35S
$$

TXZ143>147-156>162-174-175-062300-
CENTRAL TEXAS

CITY           SKY/WX    TMP DP  RH WIND       PRES   REMARKS
WACO           MOSUNNY   53  35  50 N20       30.35S
WACO-MCGREGOR  PTSUNNY   53  36  52 N16       30.35R
CORSICANA      CLOUDY    51  38  60 N7        30.36S
MEXIA          CLOUDY    46  38  74 NW7       30.34F
HEARNE         CLOUDY    50  38  65 N14       30.36R
TEMPLE         MOSUNNY   54  35  48 N15G25    30.34R
KILLEEN        SUNNY     56  30  38 N17       30.33R
KILLEEN-SKYLRK SUNNY     56  33  42 N13G20    30.34S
FORT HOOD      SUNNY     55  32  40 N14       30.32S
HAMILTON       MOSUNNY   55  30  38 N10       30.35S
LAMPASAS       SUNNY     55  25  31 NW10      30.34R
$$

TXZ095>097-106>112-122>126-135>138-148>153-164>167-062300-
EAST TEXAS

CITY           SKY/WX    TMP DP  RH WIND       PRES   REMARKS
PARIS          SUNNY     55  21  26 NW7       30.31S
TYLER          MOSUNNY   54  36  50 N9        30.33R
LONGVIEW       MOSUNNY   52  37  56 VRB6      30.32R
PALESTINE      PTSUNNY   54  37  53 NW6       30.34R
JACKSONVILLE   PTSUNNY   50  38  62 NE6       30.34R
NACOGDOCHES    PTSUNNY   50  37  62 N3        30.32R
LUFKIN         SUNNY     53  35  50 NW8       30.32R
$$

SUPPLEMENTAL OBSERVATIONS (CENTRAL)

CITY           SKY/WX    TMP DP  RH WIND       PRES   REMARKS
$$

SUPPLEMENTAL OBSERVATIONS (WEST)

CITY           SKY/WX    TMP DP  RH WIND       PRES   REMARKS
$$

SUPPLEMENTAL OBSERVATIONS (EAST)

CITY           SKY/WX    TMP DP  RH WIND       PRES   REMARKS
$$

SUPPLEMENTAL OBSERVATIONS ARE A COLLECTION OF AUTOMATED INSTRUMENTS
THAT ARE MAINTAINED BY A VARIETY OF FEDERAL AND STATE AGENCIES.
CERTAIN ELEMENTS...SUCH AS HUMIDITY VALUES AND SUSTAINED WIND
SPEEDS...MAY BE APPROXIMATED.




USA.gov is the U.S. government's official web portal to all federal, state and local government web resources and services.